Location: Bouchavesnes-Bergen
(49.9859°N, 2.9203°E)
Time: 05:16:55
(UTC+00:00)

ATLAS 5 CENTAUR R/B - Pass Details

Date: 09 March 2021
Orbit: 516 x 1142 km, 63.3° (Epoch: 10 April)

Event Time Altitude Azimuth Distance (km) Brightness Sun altitude
Exits shadow 05:00:45 11° 218° (SW) 1,725 3.4 -12.7°
Maximum altitude 05:04:33 84° 132° (SE) 594 1.5 -12.1°
Drops below altitude 10° 05:09:09 10° 44° (NE) 2,065 5.0 -11.4°
Sets 05:11:39 0° 44° (NE) 3,079 6.0 -11.0°
